AirNav   Air Wisconsin pilot careers
 
 927 users online  

CA84 Torrey Pines Gliderport
San Diego, California, USA

GOING TO SAN DIEGO?


FAA INFORMATION EFFECTIVE 12 SEPTEMBER 2019

Location

FAA Identifier: CA84
Lat/Long: 32-53-23.0000N 117-14-49.0000W
32-53.383333N 117-14.816667W
32.8897222,-117.2469444
(estimated)
Elevation: 372 ft. / 113 m (estimated)
Variation: 13E (1985)
From city: 11 miles NW of SAN DIEGO, CA
Time zone: UTC -7 (UTC -8 during Standard Time)
Zip code: 92037

Gliderport Operations

Gliderport use: Private use. Permission required prior to landing
Activation date: 11/1961
Control tower: no
ARTCC: LOS ANGELES CENTER
FSS: SAN DIEGO FLIGHT SERVICE STATION
Attendance: UNATNDD
Wind indicator: no
Segmented circle: no

Gliderport Communications

WX ASOS at MYF (7 nm SE): 126.9 (858-576-4337)
WX ASOS at SAN (10 nm S): PHONE 619-296-8934
WX AWOS-3P at SEE (14 nm E): 125.45 (619-449-1228)
WX ASOS at CRQ (14 nm N): PHONE 760-930-0864
WX ASOS at RNM (19 nm NE): 132.025 (760-789-0736)

Nearby radio navigation aids

VOR radial/distance  VOR name  Freq  Var
MZBr335/6.5MISSION BAY VORTAC117.8015E
PGYr307/21.5POGGI VORTAC116.4514E
OCNr143/22.7OCEANSIDE VORTAC115.3015E
TIJr311/25.7TIJUANA VOR/DME116.5014E
JLIr231/36.5JULIAN VORTAC114.0015E

Gliderport Services

Airframe service: NONE
Powerplant service: NONE

Runway Information

Runway 9/27

Dimensions: 1500 x 30 ft. / 457 x 9 m
Surface: asphalt
RUNWAY 9  RUNWAY 27
Traffic pattern: leftleft
Obstructions: nonetrees, 100 ft. from runway

Gliderport Ownership and Management from official FAA records

Ownership: Publicly-owned
Owner: CITY OF SAN DIEGO
Manager: JIM FROST
4740 HARBINSON AVE
LA MESA, CA 91941
Phone 619-461-9614
WORK PHONE 619-535-9505 EXT 1585

Additional Remarks

GLIDER PORT IS LEASED FM CITY TO THE ASSOCD GLIDER CLUB OF SOUTHERN CALIF FOR STUDENT TRAINING & RIDGE SOARING.
ALL ACFT ARE TRAILERED GLIDERS.
ROLLING RWY .6 PERCENT GRADIENT.
EXTENSIVE HANG GLIDER OPERATIONS ON WEEKENDS AND WEEKDAYS.
FOR CD CTC LOS ANGELES ARTCC AT 661-575-2079.

Instrument Procedures

There are no published instrument procedures at CA84.

Some nearby airports with instrument procedures:

KNKX - Miramar MCAS (Joe Foss Field) Airport (5 nm E)
KMYF - Montgomery-Gibbs Executive Airport (7 nm SE)
KSAN - San Diego International Airport (10 nm S)
KNZY - North Island Naval Air Station (Halsey Field) (12 nm S)
KSEE - Gillespie Field Airport (14 nm E)
KCRQ - Mc Clellan-Palomar Airport (14 nm N)
KRNM - Ramona Airport (19 nm NE)
 
Loc | Ops | Rwys | IFR | FBO | Links
Com | Nav | Svcs | Stats | Notes
Area around CA84 (Torrey Pines Gliderport)
 
Road maps at: MapQuest Bing Google
 
Aerial photo
WARNING: Photo may not be current or correct
Aerial photo of CA84 (Torrey Pines Gliderport)
Photo by Doug Fronius
Photo taken 13-Mar-2004
from a 1942 Schweizer TG-2 sailplane.

Do you have a better or more recent aerial photo of Torrey Pines Gliderport that you would like to share? If so, please send us your photo.

 
Sectional chart

 
Airport distance calculator
Flying to Torrey Pines Gliderport? Find the distance to fly.

From to CA84

Sunrise and sunset
Times for 15-Sep-2019
 Local
(UTC-7)
 Zulu
(UTC)
Morning civil twilight06:0913:09
Sunrise06:3413:34
Sunset18:5501:55
Evening civil twilight19:1902:19

Current date and time
Zulu (UTC)  15-Sep-2019 23:03:25
Local (UTC-7)  15-Sep-2019 16:03:25
 
METAR
KNKX 
6nm E 
152155Z 30008KT 10SM SCT250 30/14 A2986 RMK AO2 SLP104 T03000144
KMYF 
7nm SE 
152253Z 32008KT 10SM CLR 29/14 A2985 RMK AO2 SLP104 T02940139
KSAN 
10nm S 
152251Z 32012KT 10SM BKN250 26/20 A2986 RMK AO2 SLP110 T02610200
KNZY 
11nm S 
152152Z 27007KT 10SM BKN250 26/17 A2984 RMK AO2 SLP105 T02610167
KCRQ 
15nm N 
152253Z VRB03KT 10SM CLR 26/18 A2985 RMK AO2 SLP103 T02560178
KSEE 
15nm E 
152247Z 28010KT 10SM SKC 31/10 A2984
KRNM 
19nm NE 
152253Z 29009KT 10SM CLR 32/04 A2989 RMK AO2 SLP104 T03170044
TAF
KNKX 
6nm E 
1521/1621 28008KT 9999 FEW250 QNH2980INS FM160230 VRB05KT 9999 FEW010 QNH2982INS TEMPO 1606/1609 OVC007 TEMPO 1609/1615 6000 BR OVC005 FM161630 26007KT 9999 FEW200 QNH2987INS T35/1521Z T20/1612Z
KSAN 
10nm S 
152037Z 1521/1624 28009KT P6SM BKN250 FM160200 VRB04KT P6SM FEW005 SCT200 FM160700 VRB04KT 3SM BR BKN005 FM161200 VRB03KT 5SM BR BKN008 FM161600 VRB03KT P6SM SCT010 FM162100 28010KT P6SM FEW250
KNZY 
11nm S 
1515/1615 VRB06KT 9999 FEW010 SCT250 QNH2984INS FM151800 26010KT 9999 FEW015 SCT250 QNH2982INS FM160000 29007KT 9999 SCT010 BKN250 QNH2985INS FM160800 VRB06KT 9999 SCT010 BKN250 QNH2988INS TEMPO 1608/1612 9000 BR BKN008 T28/1521Z T19/1614Z FS30137
KCRQ 
15nm N 
151720Z 1518/1618 VRB04KT P6SM BKN250 FM152000 24008KT P6SM SCT250 FM160100 VRB04KT P6SM SCT250 FM160700 VRB04KT 2SM BR BKN004 FM161600 VRB04KT 5SM HZ SCT008
NOTAMs
Click for the latest NOTAMs
NOTAMs are issued by the DoD/FAA and will open in a separate window not controlled by AirNav.

 

 
 

Would you like to see your business listed on this page?

 If your business provides an interesting product or service to pilots, flight crews, aircraft, or users of the Torrey Pines Gliderport, you should consider listing it here.  To start the listing process, click on the button below
 
Add a business
 

Other Pages about Torrey Pines Gliderport

www.agcsc.org/torrey_pines_info.html
 
Update a link
 
Copyright © AirNav, LLC. All rights reserved. Privacy Policy  Contact